SCP
0 0 0 0 0 0 0 0 0 0 0 0 0 0 0 0 0 1 1 1 1 1 1 0 0 0 0 0 1 1 1 1 1 1 1 1 1 1 1 1 0 0 0
0 0 0 0 0 0 0 0 0 0 0 0 0 0 0 0 0 0 0 0 0 0 1 2 2 2 2 1 1 2 1 1 1 2 1 1 1 0 0 0 0 0 0
0 0 0 0 0 0 0 0 0 0 0 0 0 0 0 0 0 0 0 0 0 0 0 0 0 2 3 1 1 2 2 1 2 3 2 1 1 2 0 0 0 0 -0
0 0 0 0 0 0 0 0 0 0 0 0 0 0 0 0 0 0 0 0 0 0 0 0 0 0 0 2 2 0 0 2 2 5 3 3 3 2 0 0 0 0 0
0 0 0 0 0 0 0 0 0 0 0 0 0 0 0 0 0 0 0 0 0 0 0 0 0 0 0 0 0 0 1 1 2 3 3 1 1 1 1 1 0 0 0
0 0 0 0 0 0 0 0 0 0 0 0 0 0 0 0 0 0 0 0 0 0 0 0 0 0 0 0 0 0 0 1 1 3 4 2 1 1 0 0 0 0 0
0 0 0 0 0 0 0 0 0 0 0 0 0 0 0 0 0 0 0 0 0 0 0 0 0 0 0 0 0 0 0 0 1 1 2 3 1 2 1 1 1 0 0
0 0 0 0 0 0 0 0 0 0 0 0 0 0 0 0 0 0 0 0 0 0 0 0 0 0 0 0 0 0 0 0 0 1 2 3 2 2 2 1 1 0 0
0 0 0 0 0 0 0 0 0 0 0 0 0 0 0 0 0 0 0 0 0 0 0 0 0 0 0 0 0 0 0 0 0 0 0 3 3 2 2 2 1 1 0
0 0 0 0 0 0 0 0 0 0 0 0 0 0 0 0 0 0 0 0 0 0 0 0 0 0 0 0 0 0 0 0 0 0 0 0 1 1 1 1 0 0 0
0 0 0 0 0 0 0 0 0 0 0 0 0 0 0 0 0 0 0 0 0 0 0 0 0 0 0 0 0 0 0 0 0 0 0 0 1 0 0 0 0 0 0
0 0 0 0 0 0 0 0 0 0 0 0 0 0 0 0 0 0 0 0 0 0 0 0 0 0 0 0 0 0 0 0 0 0 0 0 0 0 0 0 0 0 0
0 0 0 0 0 0 0 0 0 0 0 0 0 0 0 0 -0 -0 -0 -0 0 0 0 0 0 0 0 0 0 0 0 0 0 0 0 0 0 0 0 0 0 0 0
0 0 0 0 0 0 0 0 0 0 0 0 0 0 -0 -0 -0 0 -0 -0 -0 -0 0 0 0 0 0 0 0 0 0 0 0 0 0 0 0 0 0 0 0 0 0
0 0 0 0 0 0 0 0 0 0 -0 -0 -0 0 -0 -0 0 0 0 -0 -0 -0 -0 0 0 0 0 0 0 0 0 0 0 0 0 0 0 0 0 0 0 0 0
0 0 0 0 0 0 0 0 0 -0 -0 -0 -0 -0 -0 -0 -0 -0 -0 -0 -0 -0 -0 -0 0 0 0 0 0 0 0 0 0 0 0 0 0 0 0 0 0 0 0
0 0 0 0 0 0 0 0 -0 -0 -0 -0 -0 -0 -0 -0 -0 -0 -0 -0 -0 -0 -0 -0 -0 -0 -0 0 0 0 0 0 0 0 0 0 0 0 0 0 0 0 0
0 0 0 0 0 0 0 -0 -0 -0 -0 -0 -0 -0 -0 -0 -0 -0 -0 -0 -0 -0 -0 -0 -0 -0 -0 -0 0 0 0 0 0 0 0 0 0 0 0 0 0 0 0
0 0 0 0 0 0 0 0 0 -0 -0 -0 -0 -0 -0 -0 -0 -0 -0 -0 -0 0 0 -0 -0 -0 0 0 0 0 0 0 0 0 0 0 0 0 0 0 0 0 0
0 0 0 0 0 0 0 0 0 0 0 -0 -0 -0 -0 -0 -0 -0 -0 -0 -0 -0 0 0 -0 0 0 0 0 0 0 0 0 0 0 0 0 0 0 0 0 0 0
0 0 0 0 0 0 0 0 0 0 -0 -0 -0 -0 -0 -0 0 -0 0 0 -0 0 0 0 0 -0 0 0 0 -0 0 0 0 0 0 0 0 0 0 0 0 0 0
0 0 0 0 0 0 0 0 0 -0 -0 -0 -0 -0 -0 -0 0 0 -0 0 0 0 0 0 0 0 0 -0 -0 -0 -0 -0 -0 0 0 0 0 0 0 0 0 0 0
0 0 0 0 0 0 0 0 -0 -0 -0 -0 -0 -0 -0 -0 0 -0 -0 0 0 0 0 0 0 0 0 0 -0 -0 -0 -0 -0 -0 0 0 -0 0 0 0 0 0 0
0 0 0 0 0 0 0 0 -0 -0 -0 -0 -0 0 -0 -0 0 -0 0 -0 0 0 0 0 0 0 0 0 0 -0 -0 -0 0 0 0 0 -0 0 0 0 0 0 0
0 0 0 0 0 0 0 0 0 -0 -0 -0 0 0 -0 -0 -0 -0 0 -0 0 0 0 0 0 0 -0 -0 -0 -0 -0 -0 -0 -0 0 0 0 0 0 0 0 0 0
0 0 0 0 0 0 0 0 0 0 0 0 0 0 0 0 0 0 -0 0 0 0 0 0 0 0 0 0 -0 -0 -0 -0 0 -0 0 0 0 0 0 0 0 0 0
Wind_Speed_500mb
34 37 39 39 36 32 30 26 23 21 18 17 13 6 11 20 10 20 19 20 28 30 35 35 33 35 37 40 42 44 43 40 38 37 37 34 34 33 27 24 18 18 16
32 36 38 39 41 39 37 33 32 31 30 22 19 16 14 14 21 35 28 35 40 45 44 38 34 34 36 38 43 45 48 51 43 44 35 40 31 26 22 26 21 22 19
33 36 38 39 39 42 42 41 38 34 29 25 25 20 14 21 23 29 37 38 42 38 47 49 51 46 31 43 50 53 52 54 54 51 41 29 35 19 19 23 23 28 28
31 33 36 38 41 42 39 39 41 41 39 36 32 27 24 29 32 32 36 37 42 41 43 46 50 42 37 67 68 53 57 60 66 57 56 58 45 31 23 34 37 39 31
30 33 34 35 38 41 39 37 40 41 42 41 40 37 35 33 35 37 41 40 41 44 51 57 65 61 59 64 73 59 58 56 64 62 58 70 67 59 49 41 51 47 49
26 30 31 32 36 37 37 36 40 40 42 42 43 42 43 45 45 48 46 43 45 43 44 54 62 70 83 80 78 77 85 79 75 66 66 67 53 52 58 66 66 68 66
24 28 31 32 34 37 38 38 42 44 44 45 45 45 46 45 47 49 50 58 50 47 48 55 56 61 70 77 77 79 86 82 77 74 78 83 75 68 59 55 54 64 75
21 25 29 31 34 37 37 39 43 44 45 46 47 46 47 45 45 49 52 51 53 54 57 60 60 63 66 69 71 75 81 78 75 83 84 87 78 67 72 67 59 53 60
20 24 26 29 33 36 38 39 41 42 43 44 47 48 49 52 51 53 52 51 55 58 59 63 65 65 66 65 67 67 69 70 76 76 92 87 91 83 73 76 68 70 50
17 21 23 26 29 30 33 35 37 40 42 42 45 47 55 59 56 57 58 59 60 64 69 69 66 69 68 67 67 67 65 69 73 73 78 86 102 93 96 95 90 98 88
15 18 22 24 27 28 30 31 34 36 38 40 41 43 47 59 60 60 62 60 63 65 69 71 70 73 78 75 76 75 75 77 78 79 83 86 94 106 98 97 92 101 106
14 18 20 24 27 29 30 32 34 34 36 38 40 41 43 51 56 64 74 70 68 71 70 71 75 78 81 82 81 81 82 76 76 76 77 85 93 100 90 95 94 102 103
13 16 18 21 23 26 28 31 33 34 35 37 39 41 45 49 54 60 68 78 75 79 81 77 79 85 82 78 78 82 81 85 78 76 79 85 90 102 95 96 92 91 88
13 15 18 20 22 25 26 29 31 32 34 35 35 39 42 44 51 56 62 67 74 74 76 82 87 89 87 78 69 68 70 77 82 74 80 89 96 101 94 98 93 91 68
14 17 20 22 22 23 25 27 30 30 33 34 35 38 42 42 47 53 57 63 71 73 78 81 88 89 86 78 79 81 80 77 85 78 78 90 93 104 98 97 93 85 74
15 18 21 23 24 24 27 29 32 32 33 33 34 36 40 43 46 51 57 59 64 71 72 79 92 92 87 82 79 82 91 93 90 88 75 87 85 107 95 106 95 95 96
16 19 22 24 25 26 28 30 32 33 33 34 34 36 39 43 49 51 57 61 62 69 75 71 86 98 90 86 84 89 88 87 89 88 84 70 79 105 95 108 105 98 99
15 18 21 21 20 25 28 30 32 33 35 36 37 39 43 47 50 51 56 59 63 63 71 70 69 93 98 88 85 88 77 68 70 75 79 83 66 94 100 108 101 106 96
13 17 19 17 19 24 28 30 32 34 35 37 39 40 42 48 48 54 59 57 60 65 63 73 68 79 100 94 88 79 63 49 51 52 50 70 71 90 95 104 101 79 87
12 15 16 14 18 23 26 29 33 36 38 39 39 39 40 44 46 49 58 57 55 57 61 63 73 77 90 99 87 71 62 40 19 31 46 60 79 89 88 101 91 73 71
11 13 14 15 18 22 25 30 33 38 39 38 38 38 39 42 48 46 50 52 55 57 61 64 71 79 86 94 97 83 80 70 52 35 32 44 54 60 70 74 80 81 62
13 16 16 17 18 22 25 31 34 37 37 37 38 39 38 40 47 46 43 49 54 57 62 68 76 82 85 84 87 87 73 74 77 67 67 61 67 71 69 65 57 56 46
7 12 16 19 22 23 25 29 34 36 37 36 37 39 37 38 46 42 44 49 52 58 64 67 72 79 85 83 76 78 74 72 61 65 69 67 62 62 55 50 52 48 38
4 7 12 16 19 21 23 26 31 35 37 36 39 40 39 43 40 41 45 46 50 54 63 65 67 66 70 82 79 72 67 63 66 66 54 39 39 41 43 32 35 38 30
10 10 11 13 17 19 21 24 28 34 39 38 40 38 37 40 41 40 41 41 41 51 50 51 52 59 66 66 62 60 58 53 48 46 52 55 54 44 43 39 37 30 24
12 14 15 16 18 19 21 22 25 30 36 38 43 37 38 39 40 43 43 44 53 57 58 57 51 49 50 50 49 44 48 43 34 33 39 40 37 32 30 28 23 21 20
Wind_Direction_500mb
32 30 28 27 32 37 40 37 29 23 7 342 343 306 285 264 218 230 244 272 262 274 272 270 269 273 271 270 267 272 269 263 264 272 275 272 266 262 256 263 253 242 231
31 28 25 24 23 24 28 30 28 20 14 9 11 356 327 285 254 262 271 265 253 242 241 242 260 265 263 268 274 270 267 267 258 253 265 273 264 261 248 248 228 213 208
29 24 24 23 20 20 18 17 19 19 16 9 1 353 329 282 270 269 273 265 267 261 248 241 235 234 256 278 282 275 264 264 258 251 242 257 255 228 259 231 222 225 214
30 26 23 24 22 20 14 14 13 11 8 6 3 357 346 330 315 301 286 281 277 269 260 250 242 236 249 262 266 273 270 262 259 254 246 240 243 242 248 231 223 224 231
27 23 22 22 21 19 14 12 11 8 7 5 3 360 349 338 328 322 311 305 291 285 273 261 255 251 259 261 255 254 254 258 260 253 253 250 251 244 239 240 231 237 242
27 23 20 18 18 17 15 12 12 10 8 5 2 357 349 343 336 329 328 320 316 305 298 283 272 265 268 271 268 266 259 257 260 258 250 248 240 242 239 236 242 244 243
22 19 17 16 13 11 10 12 10 11 8 6 3 358 354 350 344 337 330 325 321 315 309 297 292 282 276 276 273 267 263 259 251 257 255 254 247 248 243 240 243 240 240
18 16 13 12 8 6 5 8 8 7 7 6 4 1 357 350 345 337 332 327 319 314 310 306 300 296 292 285 279 274 269 265 260 248 252 254 249 246 241 240 237 237 233
21 16 12 10 7 4 4 4 2 1 2 3 4 3 358 352 347 340 334 326 321 314 311 309 305 300 293 290 287 280 275 271 267 264 247 252 248 245 240 238 238 232 228
22 16 12 8 7 4 1 0 1 358 356 355 356 357 359 354 347 343 338 334 328 323 318 314 310 306 302 296 288 283 278 273 269 265 262 247 256 254 255 257 246 244 234
23 15 8 5 2 0 359 356 357 356 353 352 350 347 349 352 352 348 344 338 335 332 328 321 313 308 305 301 294 286 280 275 270 265 263 255 252 257 254 258 250 243 238
18 9 2 1 359 358 355 354 354 353 351 349 349 345 343 347 349 349 351 349 345 344 340 333 327 322 312 306 301 296 291 277 270 266 262 255 245 252 255 258 246 245 234
10 6 3 358 353 352 352 351 352 350 348 348 348 345 347 348 348 347 349 351 349 350 350 342 335 331 325 313 307 302 293 287 276 264 260 252 244 246 251 255 241 239 219
15 7 358 355 352 351 352 349 349 347 348 348 348 345 347 345 346 346 346 347 351 350 349 346 344 339 331 321 314 303 299 295 284 266 254 249 242 246 243 249 243 222 209
14 4 357 355 354 352 351 349 348 345 346 345 346 345 346 349 345 347 345 347 348 352 355 350 347 343 337 330 317 303 291 280 280 271 254 250 237 244 242 238 219 215 203
7 1 357 355 352 353 349 347 347 345 344 345 343 343 344 347 345 346 348 343 343 351 358 353 352 347 342 333 322 307 294 284 275 268 256 251 235 239 244 238 221 218 209
359 357 356 355 353 352 348 345 345 344 346 345 344 343 343 342 346 347 349 349 345 342 352 355 349 353 349 339 326 314 304 292 279 268 252 248 234 235 241 231 221 217 220
355 354 350 351 354 349 349 348 348 347 348 347 346 345 342 338 345 345 350 350 350 346 347 356 345 349 356 348 335 324 318 301 284 268 261 241 233 233 236 227 212 210 212
351 347 347 350 352 350 353 356 354 353 351 348 346 345 343 336 342 346 349 354 351 349 346 355 355 353 2 359 351 338 336 316 282 272 256 240 230 235 227 227 217 197 190
3 358 359 0 356 354 355 357 357 355 353 349 345 343 343 339 342 345 353 351 352 351 348 353 359 4 9 7 6 7 9 356 1 242 250 226 237 238 228 217 198 174 172
12 13 11 9 0 355 356 356 356 354 349 347 343 343 344 343 341 350 348 353 352 353 353 357 5 4 15 12 13 17 31 31 33 86 166 198 211 197 173 167 165 162 163
39 31 32 18 10 6 4 359 357 350 347 347 346 345 345 348 339 349 348 351 352 354 355 358 6 12 14 17 16 18 26 39 43 65 97 127 144 146 151 155 151 151 166
41 32 32 26 19 12 9 1 357 352 352 349 349 348 349 349 340 347 347 346 349 353 357 359 360 4 10 16 18 19 23 35 44 56 73 93 110 118 111 119 137 140 141
289 340 358 5 5 4 3 360 357 358 356 354 351 352 354 351 346 350 345 353 348 350 353 357 360 359 4 10 13 16 20 31 39 51 61 82 91 105 118 131 125 120 124
273 289 302 321 333 340 345 348 353 359 360 358 353 350 355 351 350 350 347 347 349 351 354 354 356 354 1 4 2 10 16 18 37 52 62 64 65 66 80 80 80 86 97
265 279 288 299 308 314 323 330 342 352 354 356 354 349 352 350 350 349 348 349 346 350 352 353 357 358 358 1 7 10 21 17 25 42 49 52 65 65 73 81 87 95 100
Wind_Speed_850mb
34 37 39 39 36 32 30 26 23 21 18 17 13 6 11 20 10 20 19 20 28 30 35 35 33 35 37 40 42 44 43 40 38 37 37 34 34 33 27 24 18 18 16
32 36 38 39 41 39 37 33 32 31 30 22 19 16 14 14 21 35 28 35 40 45 44 38 34 34 36 38 43 45 48 51 43 44 35 40 31 26 22 26 21 22 19
33 36 38 39 39 42 42 41 38 34 29 25 25 20 14 21 23 29 37 38 42 38 47 49 51 46 31 43 50 53 52 54 54 51 41 29 35 19 19 23 23 28 28
31 33 36 38 41 42 39 39 41 41 39 36 32 27 24 29 32 32 36 37 42 41 43 46 50 42 37 67 68 53 57 60 66 57 56 58 45 31 23 34 37 39 31
30 33 34 35 38 41 39 37 40 41 42 41 40 37 35 33 35 37 41 40 41 44 51 57 65 61 59 64 73 59 58 56 64 62 58 70 67 59 49 41 51 47 49
26 30 31 32 36 37 37 36 40 40 42 42 43 42 43 45 45 48 46 43 45 43 44 54 62 70 83 80 78 77 85 79 75 66 66 67 53 52 58 66 66 68 66
24 28 31 32 34 37 38 38 42 44 44 45 45 45 46 45 47 49 50 58 50 47 48 55 56 61 70 77 77 79 86 82 77 74 78 83 75 68 59 55 54 64 75
21 25 29 31 34 37 37 39 43 44 45 46 47 46 47 45 45 49 52 51 53 54 57 60 60 63 66 69 71 75 81 78 75 83 84 87 78 67 72 67 59 53 60
20 24 26 29 33 36 38 39 41 42 43 44 47 48 49 52 51 53 52 51 55 58 59 63 65 65 66 65 67 67 69 70 76 76 92 87 91 83 73 76 68 70 50
17 21 23 26 29 30 33 35 37 40 42 42 45 47 55 59 56 57 58 59 60 64 69 69 66 69 68 67 67 67 65 69 73 73 78 86 102 93 96 95 90 98 88
15 18 22 24 27 28 30 31 34 36 38 40 41 43 47 59 60 60 62 60 63 65 69 71 70 73 78 75 76 75 75 77 78 79 83 86 94 106 98 97 92 101 106
14 18 20 24 27 29 30 32 34 34 36 38 40 41 43 51 56 64 74 70 68 71 70 71 75 78 81 82 81 81 82 76 76 76 77 85 93 100 90 95 94 102 103
13 16 18 21 23 26 28 31 33 34 35 37 39 41 45 49 54 60 68 78 75 79 81 77 79 85 82 78 78 82 81 85 78 76 79 85 90 102 95 96 92 91 88
13 15 18 20 22 25 26 29 31 32 34 35 35 39 42 44 51 56 62 67 74 74 76 82 87 89 87 78 69 68 70 77 82 74 80 89 96 101 94 98 93 91 68
14 17 20 22 22 23 25 27 30 30 33 34 35 38 42 42 47 53 57 63 71 73 78 81 88 89 86 78 79 81 80 77 85 78 78 90 93 104 98 97 93 85 74
15 18 21 23 24 24 27 29 32 32 33 33 34 36 40 43 46 51 57 59 64 71 72 79 92 92 87 82 79 82 91 93 90 88 75 87 85 107 95 106 95 95 96
16 19 22 24 25 26 28 30 32 33 33 34 34 36 39 43 49 51 57 61 62 69 75 71 86 98 90 86 84 89 88 87 89 88 84 70 79 105 95 108 105 98 99
15 18 21 21 20 25 28 30 32 33 35 36 37 39 43 47 50 51 56 59 63 63 71 70 69 93 98 88 85 88 77 68 70 75 79 83 66 94 100 108 101 106 96
13 17 19 17 19 24 28 30 32 34 35 37 39 40 42 48 48 54 59 57 60 65 63 73 68 79 100 94 88 79 63 49 51 52 50 70 71 90 95 104 101 79 87
12 15 16 14 18 23 26 29 33 36 38 39 39 39 40 44 46 49 58 57 55 57 61 63 73 77 90 99 87 71 62 40 19 31 46 60 79 89 88 101 91 73 71
11 13 14 15 18 22 25 30 33 38 39 38 38 38 39 42 48 46 50 52 55 57 61 64 71 79 86 94 97 83 80 70 52 35 32 44 54 60 70 74 80 81 62
13 16 16 17 18 22 25 31 34 37 37 37 38 39 38 40 47 46 43 49 54 57 62 68 76 82 85 84 87 87 73 74 77 67 67 61 67 71 69 65 57 56 46
7 12 16 19 22 23 25 29 34 36 37 36 37 39 37 38 46 42 44 49 52 58 64 67 72 79 85 83 76 78 74 72 61 65 69 67 62 62 55 50 52 48 38
4 7 12 16 19 21 23 26 31 35 37 36 39 40 39 43 40 41 45 46 50 54 63 65 67 66 70 82 79 72 67 63 66 66 54 39 39 41 43 32 35 38 30
10 10 11 13 17 19 21 24 28 34 39 38 40 38 37 40 41 40 41 41 41 51 50 51 52 59 66 66 62 60 58 53 48 46 52 55 54 44 43 39 37 30 24
12 14 15 16 18 19 21 22 25 30 36 38 43 37 38 39 40 43 43 44 53 57 58 57 51 49 50 50 49 44 48 43 34 33 39 40 37 32 30 28 23 21 20
Wind_Direction_850mb
32 30 28 27 32 37 40 37 29 23 7 342 343 306 285 264 218 230 244 272 262 274 272 270 269 273 271 270 267 272 269 263 264 272 275 272 266 262 256 263 253 242 231
31 28 25 24 23 24 28 30 28 20 14 9 11 356 327 285 254 262 271 265 253 242 241 242 260 265 263 268 274 270 267 267 258 253 265 273 264 261 248 248 228 213 208
29 24 24 23 20 20 18 17 19 19 16 9 1 353 329 282 270 269 273 265 267 261 248 241 235 234 256 278 282 275 264 264 258 251 242 257 255 228 259 231 222 225 214
30 26 23 24 22 20 14 14 13 11 8 6 3 357 346 330 315 301 286 281 277 269 260 250 242 236 249 262 266 273 270 262 259 254 246 240 243 242 248 231 223 224 231
27 23 22 22 21 19 14 12 11 8 7 5 3 360 349 338 328 322 311 305 291 285 273 261 255 251 259 261 255 254 254 258 260 253 253 250 251 244 239 240 231 237 242
27 23 20 18 18 17 15 12 12 10 8 5 2 357 349 343 336 329 328 320 316 305 298 283 272 265 268 271 268 266 259 257 260 258 250 248 240 242 239 236 242 244 243
22 19 17 16 13 11 10 12 10 11 8 6 3 358 354 350 344 337 330 325 321 315 309 297 292 282 276 276 273 267 263 259 251 257 255 254 247 248 243 240 243 240 240
18 16 13 12 8 6 5 8 8 7 7 6 4 1 357 350 345 337 332 327 319 314 310 306 300 296 292 285 279 274 269 265 260 248 252 254 249 246 241 240 237 237 233
21 16 12 10 7 4 4 4 2 1 2 3 4 3 358 352 347 340 334 326 321 314 311 309 305 300 293 290 287 280 275 271 267 264 247 252 248 245 240 238 238 232 228
22 16 12 8 7 4 1 0 1 358 356 355 356 357 359 354 347 343 338 334 328 323 318 314 310 306 302 296 288 283 278 273 269 265 262 247 256 254 255 257 246 244 234
23 15 8 5 2 0 359 356 357 356 353 352 350 347 349 352 352 348 344 338 335 332 328 321 313 308 305 301 294 286 280 275 270 265 263 255 252 257 254 258 250 243 238
18 9 2 1 359 358 355 354 354 353 351 349 349 345 343 347 349 349 351 349 345 344 340 333 327 322 312 306 301 296 291 277 270 266 262 255 245 252 255 258 246 245 234
10 6 3 358 353 352 352 351 352 350 348 348 348 345 347 348 348 347 349 351 349 350 350 342 335 331 325 313 307 302 293 287 276 264 260 252 244 246 251 255 241 239 219
15 7 358 355 352 351 352 349 349 347 348 348 348 345 347 345 346 346 346 347 351 350 349 346 344 339 331 321 314 303 299 295 284 266 254 249 242 246 243 249 243 222 209
14 4 357 355 354 352 351 349 348 345 346 345 346 345 346 349 345 347 345 347 348 352 355 350 347 343 337 330 317 303 291 280 280 271 254 250 237 244 242 238 219 215 203
7 1 357 355 352 353 349 347 347 345 344 345 343 343 344 347 345 346 348 343 343 351 358 353 352 347 342 333 322 307 294 284 275 268 256 251 235 239 244 238 221 218 209
359 357 356 355 353 352 348 345 345 344 346 345 344 343 343 342 346 347 349 349 345 342 352 355 349 353 349 339 326 314 304 292 279 268 252 248 234 235 241 231 221 217 220
355 354 350 351 354 349 349 348 348 347 348 347 346 345 342 338 345 345 350 350 350 346 347 356 345 349 356 348 335 324 318 301 284 268 261 241 233 233 236 227 212 210 212
351 347 347 350 352 350 353 356 354 353 351 348 346 345 343 336 342 346 349 354 351 349 346 355 355 353 2 359 351 338 336 316 282 272 256 240 230 235 227 227 217 197 190
3 358 359 0 356 354 355 357 357 355 353 349 345 343 343 339 342 345 353 351 352 351 348 353 359 4 9 7 6 7 9 356 1 242 250 226 237 238 228 217 198 174 172
12 13 11 9 0 355 356 356 356 354 349 347 343 343 344 343 341 350 348 353 352 353 353 357 5 4 15 12 13 17 31 31 33 86 166 198 211 197 173 167 165 162 163
39 31 32 18 10 6 4 359 357 350 347 347 346 345 345 348 339 349 348 351 352 354 355 358 6 12 14 17 16 18 26 39 43 65 97 127 144 146 151 155 151 151 166
41 32 32 26 19 12 9 1 357 352 352 349 349 348 349 349 340 347 347 346 349 353 357 359 360 4 10 16 18 19 23 35 44 56 73 93 110 118 111 119 137 140 141
289 340 358 5 5 4 3 360 357 358 356 354 351 352 354 351 346 350 345 353 348 350 353 357 360 359 4 10 13 16 20 31 39 51 61 82 91 105 118 131 125 120 124
273 289 302 321 333 340 345 348 353 359 360 358 353 350 355 351 350 350 347 347 349 351 354 354 356 354 1 4 2 10 16 18 37 52 62 64 65 66 80 80 80 86 97
265 279 288 299 308 314 323 330 342 352 354 356 354 349 352 350 350 349 348 349 346 350 352 353 357 358 358 1 7 10 21 17 25 42 49 52 65 65 73 81 87 95 100